Reflectivity
-20 -20 -20 -20 -20 -20 -20 -20 -20 -20 -20 -20 -20 -20 -20 -20 -20 -20 -17 -20 -20 -20 -20 -20 -20 -20 -20 -20 -20 -20 -20 -20 -20 -20 -20 -20 -20 -20 -20 -20 -20 -20 -20 -20 -20 -20 -20
-20 -20 -20 -20 -20 -20 -20 -20 -20 -20 -20 -20 -20 -20 -20 -20 -7 -7 -20 -20 -20 -20 -20 -20 -20 -20 -20 -20 -20 -20 -20 -20 -20 -20 -20 -20 -20 -20 -20 -20 -20 -20 -20 -20 -20 -20 -20
-20 -20 -20 -20 -20 -20 -20 -20 -20 -20 -20 -20 -20 -20 -20 -20 -20 -19 -20 -20 -20 -20 -20 -20 -20 -20 -20 -20 -20 -20 -20 -20 -20 -20 -20 -20 -20 -20 -20 -20 -20 -20 -20 -20 -20 -20 -20
-16 -20 -20 -20 -20 -20 -16 -20 -20 -20 -20 -20 -20 -20 -20 -20 -20 -20 -20 -20 -20 -20 -20 -20 -20 -20 -20 -20 -20 -20 -20 -20 -20 -20 -20 -20 -20 -20 -20 -20 -20 -20 -20 -20 -20 -20 -20
-7 -14 -20 -20 -18 -12 -6 -17 -20 -19 -20 -20 -20 -20 8 -20 -20 -20 -20 -20 -20 -20 -20 -20 -20 -20 -20 -20 -20 -20 -20 -20 -20 -20 -20 -20 -20 -20 -20 -20 -20 -20 -20 -20 -20 -20 -20
24 20 22 21 9 15 -2 -15 -10 11 14 18 27 24 23 0 -20 -20 -20 -20 -20 -19 -20 -20 -20 -20 -20 -20 -20 -20 -20 -20 -20 -20 -20 -20 -20 -20 -20 -20 -20 -20 -20 -20 -20 -20 -20
2 18 16 22 24 19 16 -8 -20 -20 -4 22 -1 20 20 9 12 -20 -20 -20 -20 -20 -20 -20 -20 -20 -20 -20 -20 -20 -20 -20 -20 -20 -20 -20 -20 -20 -20 -20 -20 -20 -20 -20 -20 -20 -20
24 27 20 18 27 22 18 26 8 -10 12 17 7 14 19 3 19 -20 -20 -20 -19 -8 -11 -20 -20 -20 -20 -20 -20 -20 -20 -20 -20 -20 -20 -20 -20 -20 -20 -20 -20 -20 -20 -20 -20 -20 -20
22 26 20 10 18 17 22 25 17 15 9 16 15 21 13 1 6 5 -15 -17 -3 -18 -8 -20 -20 -20 -20 -20 -20 -20 -20 -20 -20 -20 -20 -20 -20 -20 -20 -20 -20 -20 -20 -20 -20 -20 -20
26 30 21 20 17 23 31 25 23 15 23 17 8 4 16 9 6 4 -14 -14 1 -19 -20 -20 -20 -20 -20 -20 -20 -20 -20 -20 -20 -20 -20 -20 -20 -20 -20 -20 -20 -20 -20 -20 -20 -20 -20
32 29 25 28 27 32 30 30 25 24 19 22 17 19 13 -20 -15 -20 -17 -14 -14 -6 -15 -20 -20 -20 -20 -20 -20 -20 -20 -19 -17 -20 -20 -20 -20 -20 -20 -20 -18 -20 -20 -20 -20 -20 -20
28 28 29 21 23 26 26 17 24 19 22 14 16 17 -9 -19 -20 -20 -6 9 4 28 3 -20 -20 -20 -20 -20 -20 -20 -20 -20 -20 -20 -20 -20 -20 -20 -20 -20 -20 -20 -20 -20 -20 -20 -20
20 21 23 26 20 25 31 22 5 26 16 13 6 -19 -5 8 -11 -20 7 25 25 29 -20 -20 -20 -20 -20 -20 -20 -20 -20 -20 -20 -20 -20 -20 -20 -20 -20 -20 -20 -20 -20 -20 -20 -20 -20
9 1 11 16 18 18 30 30 29 31 27 27 24 19 -20 -20 -20 19 12 29 21 -19 -20 -20 -20 -20 -20 -20 -20 -20 -20 -20 -20 -20 -20 -20 -20 -20 -20 -20 -20 -20 -20 -20 -20 -20 -19
-6 8 -6 -1 11 12 12 16 25 30 33 30 30 24 12 -1 -12 -6 18 24 3 -20 -20 -19 9 -13 -17 -1 9 7 1 -8 -20 -20 -20 -20 -20 -20 -20 -20 -20 -20 -20 -20 -5 -20 7
-20 -19 -3 -2 -9 -10 -1 4 9 18 22 25 29 30 25 15 10 15 20 1 -2 -20 -5 -20 -5 14 6 -0 -20 -20 -14 6 10 -4 -20 -20 -20 -20 -20 -20 -20 -20 -5 -2 14 11 14
8 -19 -7 17 -20 -20 -15 5 -20 -7 20 21 24 13 18 15 31 33 19 4 -20 -10 12 5 -9 -14 -0 -20 -15 -20 -20 -20 -20 -20 -20 -20 -8 -19 -20 -20 2 -20 -20 -20 -20 5 11
17 -20 6 10 -18 -19 -19 12 8 10 14 20 -6 18 11 23 32 38 21 -20 -20 -19 8 9 17 18 22 14 7 9 -19 -7 -1 3 -11 -10 6 -5 -20 -20 -20 -20 -20 -2 15 -0 -4
-20 -20 -20 -20 15 -20 -2 11 -20 -20 11 23 14 3 14 16 15 28 -12 -11 2 -20 -20 -9 8 11 -1 10 12 -16 -6 -3 1 8 0 15 13 -11 -20 -15 -15 -20 -20 7 8 -6 -20
21 -20 -20 3 -20 -20 -20 10 -20 -20 -20 20 17 20 3 30 -1 15 6 -3 11 -14 -12 -20 -20 -20 -7 -19 -1 7 -20 -20 -15 8 -3 15 19 10 18 4 15 19 8 11 18 17 -13
-9 -7 11 -20 1 5 -20 -20 -20 -20 -20 22 11 29 8 10 32 19 4 9 2 -1 6 7 -1 -20 -20 0 4 8 -20 -20 -19 -19 -20 15 12 -6 -15 -20 -20 8 -1 -11 11 7 16
20 -12 21 -9 -19 9 9 -14 10 -20 -2 13 23 28 2 18 -8 13 26 36 -6 -2 16 8 6 -20 14 13 7 -13 -1 3 -9 4 -4 7 7 -2 -2 -17 4 8 -20 -20 -20 -20 -20
-19 -20 15 18 16 -20 7 -12 7 1 -20 15 7 17 20 26 2 19 7 14 28 10 29 11 14 -7 12 -7 17 7 -0 -20 -12 6 9 12 13 5 12 -13 11 11 -20 -20 -20 -20 2
20 7 21 14 20 15 -20 -13 -1 -9 -15 -15 6 22 20 -5 22 18 -2 2 16 21 22 21 23 20 20 -20 -10 -20 18 10 0 -20 4 5 10 12 8 9 20 -20 -20 -20 -20 -20 -20
-19 23 19 20 19 18 19 10 -20 -20 0 -1 1 -5 21 3 2 26 29 30 23 17 22 15 -2 -15 23 -20 10 26 14 8 -18 -20 -20 -20 16 18 18 0 -20 -20 -20 -20 -11 -20 -20
-20 -20 -0 18 22 21 20 17 -20 -20 -18 14 -8 -20 -14 -20 -20 -4 4 5 5 19 -19 8 -20 2 -15 -7 22 17 16 16 8 17 -16 21 19 13 15 9 0 -20 -1 -20 -20 -18 -20
-18 -11 -20 8 16 26 21 18 15 1 -11 11 8 -20 -14 -19 -20 -20 -20 -16 -19 -15 -8 -7 34 -3 20 11 14 9 8 7 11 13 21 24 21 16 19 22 28 12 -20 -20 10 -16 -20
17 -20 -1 -20 18 18 17 34 35 21 -6 -1 1 -8 -17 -3 -20 -20 -20 -20 -20 -20 -14 -9 13 19 14 31 25 24 24 20 16 9 12 9 20 20 20 17 12 -20 -20 -11 9 -20 12
33 14 -20 5 -20 14 -5 23 36 36 28 21 13 12 3 4 -13 -11 -3 -20 -20 -20 -1 7 -14 -6 4 19 15 14 -19 17 26 21 -11 6 11 18 22 25 4 -11 -20 -20 -20 25 13
Wind_Speed
15 15 14 13 13 13 12 12 11 11 10 10 8 9 10 9 9 9 9 11 14 15 16 15 14 16 11 9 10 3 5 6 8 7 6 7 7 5 9 5 5 10 7 6 5 2 4
15 16 16 15 14 13 14 13 12 12 11 11 10 9 8 9 9 8 8 10 13 15 14 14 11 15 7 17 2 1 8 12 9 8 7 5 3 5 7 6 10 2 8 8 7 7 6
17 17 16 15 14 14 15 13 12 12 12 12 10 10 9 8 6 6 9 10 13 14 13 11 11 8 7 18 5 9 10 8 6 8 8 2 2 5 3 6 3 5 12 11 13 12 10
19 19 18 16 15 14 14 14 14 14 14 12 10 10 8 4 4 7 9 13 15 14 11 7 6 7 11 2 7 10 6 4 2 5 4 2 3 6 5 2 5 10 7 13 9 12 8
20 19 18 15 15 15 12 13 12 14 14 13 11 8 7 4 3 7 12 16 15 10 2 4 6 6 13 4 5 4 4 5 5 3 4 1 4 7 4 11 10 11 14 12 7 9 7
7 7 8 10 10 10 9 9 9 10 9 8 8 5 3 2 5 8 14 16 8 6 4 5 4 6 9 5 1 4 11 9 5 2 5 8 7 10 8 12 14 12 12 10 12 9 11
3 5 6 5 5 4 7 10 10 10 9 8 8 7 5 7 8 8 12 5 7 8 6 8 5 10 21 13 13 13 4 10 11 10 13 12 11 14 14 15 18 11 12 13 9 5 6
12 9 1 5 2 2 4 4 8 8 7 5 6 6 5 6 10 11 6 3 4 6 11 15 22 25 30 19 14 15 9 10 14 22 17 16 19 18 15 13 15 16 16 16 15 9 11
5 6 5 8 6 7 7 7 7 8 7 5 7 5 3 4 7 2 3 2 7 3 9 11 19 13 13 11 13 14 12 8 18 19 22 24 11 4 13 16 16 18 17 15 14 8 14
3 6 4 6 8 10 10 9 7 7 6 7 8 5 3 1 3 1 1 4 5 4 9 4 6 3 5 5 7 4 8 10 9 14 17 20 22 26 19 19 16 19 14 12 16 12 12
2 4 5 6 7 9 11 8 11 10 9 9 10 7 3 2 3 2 1 5 5 4 8 7 6 5 4 6 5 4 6 8 12 8 8 8 8 16 23 24 16 15 7 11 12 15 16
4 4 3 6 8 11 12 10 10 11 10 10 10 8 7 1 0 1 3 6 2 5 11 5 6 5 5 6 3 5 6 7 3 10 12 15 3 6 11 8 13 5 7 7 7 9 14
10 12 12 8 6 7 7 4 2 6 11 11 10 11 7 4 3 2 1 2 5 9 2 5 2 5 2 2 3 6 7 8 7 6 9 10 19 14 10 9 6 15 11 5 9 8 11
11 12 12 10 8 7 8 8 7 4 2 4 6 12 6 4 4 3 3 2 9 6 11 1 1 3 3 2 2 2 3 8 8 7 9 8 8 13 17 20 13 20 17 10 11 12 13
10 11 10 8 7 7 7 7 8 10 8 4 5 4 4 6 6 4 6 6 7 5 3 4 3 2 3 1 3 3 5 2 6 7 6 5 9 2 4 12 15 12 16 16 20 22 13
12 12 12 11 10 9 8 6 5 8 11 13 4 3 3 9 6 5 7 11 10 6 3 2 6 3 8 4 7 3 6 5 7 13 7 8 10 13 12 8 11 16 4 6 10 7 19
14 14 14 12 9 10 9 8 5 5 7 10 4 3 3 10 5 3 10 11 13 14 12 5 3 3 2 1 3 1 1 8 5 5 9 11 3 3 6 9 12 9 13 13 11 14 13
14 12 12 11 9 8 9 9 7 5 4 6 3 6 7 10 4 3 9 10 8 10 2 7 11 8 4 3 4 4 6 2 8 7 14 8 6 12 16 13 15 15 16 17 13 13 12
14 12 11 11 10 9 10 10 8 7 5 2 3 2 3 4 8 8 11 13 11 11 14 7 6 7 5 10 8 14 16 1 8 7 3 3 5 7 11 12 5 13 16 13 12 11 18
17 14 14 14 13 12 11 11 10 10 8 4 3 4 4 4 3 17 19 20 14 10 17 13 9 12 14 15 15 10 17 10 6 5 5 1 2 7 14 15 11 11 11 10 11 6 12
18 18 17 16 14 14 13 12 12 10 8 4 4 3 5 5 7 5 17 9 22 18 14 13 10 19 17 15 16 17 18 16 14 13 13 6 7 15 20 21 21 21 19 23 23 20 12
20 20 19 17 16 16 15 14 13 12 8 4 3 4 2 10 5 7 8 8 23 17 13 13 16 14 14 18 18 16 11 11 11 7 10 12 12 14 21 20 20 24 22 25 26 27 25
20 20 20 19 19 18 17 14 13 13 11 6 4 3 1 6 11 11 6 12 7 11 5 11 7 9 15 16 12 11 12 14 15 14 14 14 10 10 17 16 17 14 25 25 29 24 21
22 21 22 20 22 21 19 16 14 14 15 4 3 4 4 8 5 9 7 7 11 8 1 5 7 10 1 10 8 8 17 17 18 20 17 19 17 12 14 16 19 18 19 17 21 24 22
22 21 23 23 23 21 20 18 17 16 17 6 3 3 3 7 8 6 9 11 9 5 11 12 15 14 1 1 2 6 8 8 16 24 22 21 18 12 14 15 18 24 23 20 14 21 21
24 22 23 23 20 21 21 20 19 18 18 8 5 3 3 3 7 10 5 3 3 3 6 7 6 7 9 6 4 6 7 7 6 5 6 14 16 10 10 14 16 17 5 8 10 18 18
26 24 23 24 25 24 22 23 21 19 18 9 4 9 4 4 4 5 6 5 5 3 4 3 5 6 12 8 10 12 15 12 11 14 9 6 6 14 13 10 5 14 6 6 13 4 13
27 26 24 24 25 22 20 16 21 21 18 11 6 10 6 3 4 3 5 8 6 4 5 2 5 2 4 3 4 2 5 7 12 13 11 11 7 7 9 7 11 12 4 8 9 8 12
27 27 26 25 24 23 22 20 12 17 17 16 5 7 7 4 3 0 5 9 13 11 5 4 6 5 3 2 3 4 7 4 12 3 5 6 11 6 5 3 5 5 6 12 9 11 17
Wind_Direction
231 232 230 229 231 232 233 235 237 241 247 250 250 262 273 287 295 300 305 307 308 312 311 319 324 323 320 299 270 71 321 308 308 317 303 310 289 295 246 243 221 231 199 195 161 219 250
226 230 229 229 229 231 236 232 231 239 240 246 246 253 264 280 293 304 302 299 300 303 306 313 318 307 297 289 49 269 302 295 285 252 253 264 307 336 291 263 251 178 241 216 197 206 234
227 230 233 231 230 233 231 228 233 235 238 238 237 246 253 268 288 292 295 297 292 288 301 301 301 279 256 267 304 306 291 292 299 261 225 223 279 252 343 256 284 260 250 219 220 218 214
230 227 227 225 230 230 232 235 231 230 236 233 236 243 246 221 265 291 301 292 281 290 298 295 252 256 265 254 306 286 262 170 105 202 240 263 249 277 248 344 237 248 254 240 178 188 168
230 230 230 228 229 233 232 236 239 243 239 231 225 215 176 176 289 320 306 289 287 288 228 185 225 250 273 124 239 203 261 349 358 137 207 172 228 273 200 235 238 214 258 217 184 216 168
76 83 108 120 118 120 112 97 84 69 73 74 74 83 105 94 360 326 303 283 294 188 182 206 265 254 238 266 127 267 271 285 282 200 200 219 229 243 217 232 237 252 231 243 244 176 223
120 127 123 83 88 106 117 120 107 86 90 95 97 77 24 11 337 328 307 281 228 205 224 256 266 278 286 277 290 272 347 260 213 238 230 204 228 227 241 235 269 284 268 262 257 163 261
26 15 91 131 184 189 172 165 126 120 117 115 93 93 83 21 344 328 281 360 29 350 287 260 254 255 259 273 276 253 262 252 210 227 226 231 237 245 259 261 253 254 256 252 261 246 252
328 319 345 23 259 217 216 203 152 153 147 152 128 113 61 39 348 358 17 58 338 297 261 257 239 261 259 228 237 266 216 223 242 242 227 232 238 211 253 237 238 239 254 264 267 293 260
294 293 296 308 303 329 217 205 182 177 177 168 149 156 164 357 93 61 178 307 296 227 278 245 215 231 186 214 236 216 209 222 216 247 233 253 252 251 243 239 237 251 244 252 262 262 264
229 265 270 257 261 259 288 219 193 195 199 194 175 185 160 347 137 189 155 286 273 230 271 111 145 117 169 215 334 178 203 195 233 210 196 227 229 227 231 241 232 271 238 240 254 254 265
259 280 273 280 253 251 248 236 207 200 206 203 182 168 150 102 111 329 340 300 235 221 241 164 139 179 201 214 222 139 196 221 221 235 234 259 310 257 242 244 247 255 221 227 233 245 248
224 245 251 238 247 258 253 209 191 232 210 203 190 171 185 175 144 114 246 11 178 230 76 138 148 174 247 220 224 213 187 193 224 227 215 233 232 222 225 210 191 197 194 227 224 210 250
235 234 235 231 227 230 239 224 217 201 179 187 192 164 199 208 155 124 108 121 222 219 225 53 97 303 256 343 179 207 222 244 232 257 286 275 230 200 207 233 216 209 212 233 257 255 275
242 239 233 234 236 235 236 225 211 203 201 179 149 170 172 188 177 174 172 218 221 230 308 305 269 283 278 349 292 292 222 226 40 360 250 304 245 128 225 217 229 239 222 253 266 273 278
248 248 235 225 224 224 224 223 225 232 210 181 178 203 203 163 167 197 204 233 224 206 329 308 232 223 233 210 211 209 202 129 113 38 1 10 282 235 245 221 231 249 269 210 216 242 245
253 254 247 239 229 232 218 205 203 241 255 203 201 207 175 146 107 210 216 213 240 256 289 291 282 243 214 319 310 301 154 103 71 49 9 6 262 250 306 218 243 200 234 235 270 245 261
244 246 233 221 224 223 217 208 200 212 257 206 202 211 157 152 163 210 226 212 248 224 225 242 232 243 254 263 273 279 252 302 282 280 300 297 299 284 273 292 286 275 278 260 239 253 244
227 229 227 211 213 211 206 206 206 224 217 188 206 173 178 213 209 220 231 250 243 228 230 219 228 237 255 258 258 245 250 358 316 283 0 83 209 280 275 249 234 247 258 271 298 288 256
224 222 225 228 219 215 210 215 210 214 223 213 175 201 151 215 227 231 225 236 226 221 243 237 253 257 253 258 255 265 268 272 242 270 140 108 253 277 282 302 339 279 271 285 269 237 259
226 221 216 222 224 222 216 211 215 213 212 203 195 225 189 200 232 229 231 206 228 229 221 210 228 234 239 244 249 244 258 263 252 251 266 240 252 261 261 270 279 268 268 270 268 270 257
230 223 214 213 218 217 213 215 208 201 194 227 174 188 236 239 212 205 209 229 238 237 221 216 228 238 230 243 250 258 252 263 258 231 245 236 249 259 260 257 258 265 263 256 257 258 257
229 223 215 211 213 215 218 211 203 201 186 214 163 182 359 210 222 235 208 225 224 236 257 265 239 281 262 259 279 285 288 281 267 261 253 252 249 253 265 265 272 259 247 249 256 253 249
233 225 216 212 218 211 210 207 202 200 199 236 212 208 210 249 242 224 240 262 229 241 231 262 262 240 192 43 318 252 259 254 252 251 241 244 237 245 263 277 259 268 263 271 268 260 248
231 226 216 220 219 211 208 204 201 201 196 209 188 213 217 251 245 234 248 239 250 237 229 235 249 243 133 69 258 239 230 254 243 242 237 229 238 246 244 252 270 276 270 261 243 262 253
224 223 219 210 220 212 203 205 201 200 190 199 192 201 226 263 240 238 235 234 276 279 276 247 243 223 225 236 211 244 247 251 237 195 210 227 222 224 220 236 249 251 37 335 273 263 276
219 217 216 212 202 211 210 208 201 198 191 186 183 182 192 227 237 224 213 236 218 226 268 53 355 319 236 206 220 241 251 244 246 246 216 202 217 232 238 251 270 282 334 253 224 316 344
217 212 211 208 205 204 195 208 207 197 185 184 184 191 198 213 242 231 245 242 237 230 254 185 311 233 295 255 239 336 260 241 236 235 258 253 240 222 228 242 257 15 264 270 355 327 336
215 210 206 205 202 197 193 190 172 192 198 187 189 189 202 226 285 231 281 277 260 256 271 212 269 309 191 254 241 291 293 276 299 257 185 231 227 284 264 331 353 354 343 331 334 309 305